STARLINK-1406 (45687 NORAD) Tracking and Keplerian Element Data

This shows tracking and keplerian element data for the satellite.

Feedback or suggestion? Click here.




ElementValue
Catalog45687
NameSTARLINK-1406
Epoch Orbit571
Epoch Day186.50001157
Epoch Year2020
RAAN17.7723
Inclination53.0014
Eccentricity0.000117
Argument of Perigee71.7015
Mean Anonmoly258.7118
Mean Motion15.62779053
Decay Rate-0.00057411
L11 45687U 20035AG 20186.50001157 -.00057411 00000-0 -62494-3 0 9994
L22 45687 53.0014 17.7723 0001170 71.7015 258.7118 15.62779053 5712

Live tracking and technical data element details for STARLINK-1406 (NORAD 45687). STARLINK-1406 can be tracked NOW for your location showing map with azimuth and elevation plus other details from your city location.

Track the satellite on the map from your city or location and see movement details for azimuth, elevation, latitude, longitude, range, height, and movement on the map or in text.







IsCatalogInMostPopularTable: catalog: 45687, numindb: 4
Update: records affected: 1



GetName: 45687 STARLINK-1406

Hit Count: updated at: Sun, 05 Jul 2020 16:58:48 GMT